| time (UTC) | temp F | wind direction | speed MPH | gust MPH | rain 1hr in | rain 24hr in | rain mn in | humidity % | barometer mb |
| 20260505090205 | 56 | 165 | 0.0 | 0.0 | 0.00 | 0.00 | 0.00 | 87 | 1003.5 |
| 20260505085702 | 56 | 151 | 0.0 | 0.0 | 0.00 | 0.00 | 0.00 | 87 | 1003.6 |
| 20260505085201 | 56 | 159 | 0.0 | 0.0 | 0.00 | 0.00 | 0.00 | 88 | 1003.5 |
| 20260505084658 | 56 | 156 | 0.0 | 0.0 | 0.00 | 0.00 | 0.00 | 88 | 1003.5 |
| 20260505084156 | 56 | 154 | 0.0 | 0.0 | 0.00 | 0.00 | 0.00 | 87 | 1003.4 |
| 20260505083653 | 56 | 159 | 0.0 | 0.0 | 0.00 | 0.00 | 0.00 | 87 | 1003.5 |
| 20260505083150 | 57 | 159 | 0.0 | 0.0 | 0.00 | 0.00 | 0.00 | 86 | 1003.5 |
| 20260505082645 | 57 | 171 | 0.0 | 0.0 | 0.00 | 0.00 | 0.00 | 85 | 1003.4 |
| 20260505082143 | 57 | 180 | 1.0 | 1.0 | 0.00 | 0.00 | 0.00 | 84 | 1003.8 |
| 20260505081639 | 57 | 195 | 2.0 | 2.0 | 0.00 | 0.00 | 0.00 | 84 | 1004.1 |
| 20260505081137 | 57 | 186 | 1.0 | 1.0 | 0.00 | 0.00 | 0.00 | 84 | 1004.4 |
| 20260505080633 | 58 | 184 | 1.0 | 1.0 | 0.00 | 0.00 | 0.00 | 83 | 1004.0 |
| 20260505080129 | 58 | 197 | 2.0 | 2.0 | 0.00 | 0.00 | 0.00 | 81 | 1004.3 |
| 20260505075625 | 59 | 225 | 4.0 | 5.0 | 0.00 | 0.00 | 0.00 | 80 | 1004.5 |
| 20260505075122 | 60 | 206 | 4.0 | 5.0 | 0.00 | 0.00 | 0.00 | 78 | 1004.4 |
| 20260505074619 | 62 | 214 | 3.0 | 3.0 | 0.00 | 0.00 | 0.00 | 66 | 1004.3 |
| 20260505074116 | 61 | 199 | 2.0 | 2.0 | 0.00 | 0.00 | 0.00 | 66 | 1004.4 |
| 20260505073614 | 61 | 191 | 2.0 | 2.0 | 0.00 | 0.00 | 0.00 | 66 | 1004.0 |
| 20260505073112 | 61 | 185 | 1.0 | 2.0 | 0.00 | 0.00 | 0.00 | 67 | 1004.2 |
| 20260505072607 | 60 | 189 | 1.0 | 1.0 | 0.00 | 0.00 | 0.00 | 68 | 1004.2 |
| 20260505072104 | 60 | 169 | 1.0 | 1.0 | 0.00 | 0.00 | 0.00 | 70 | 1003.9 |
| 20260505071559 | 60 | 192 | 2.0 | 3.0 | 0.00 | 0.00 | 0.00 | 71 | 1003.9 |
| 20260505071057 | 60 | 189 | 1.0 | 2.0 | 0.00 | 0.00 | 0.00 | 71 | 1004.1 |
| 20260505070554 | 60 | 195 | 2.0 | 2.0 | 0.00 | 0.00 | 0.00 | 72 | 1004.1 |
| 20260505070050 | 59 | 171 | 0.0 | 1.0 | 0.00 | 0.00 | 0.00 | 74 | 1004.3 |
| 20260505065546 | 59 | 169 | 0.0 | 0.0 | 0.00 | 0.00 | 0.00 | 76 | 1004.4 |
| 20260505065043 | 60 | 182 | 1.0 | 1.0 | 0.00 | 0.00 | 0.00 | 75 | 1004.3 |
| 20260505064540 | 59 | 208 | 2.0 | 3.0 | 0.00 | 0.00 | 0.00 | 75 | 1004.3 |
| 20260505064039 | 59 | 169 | 0.0 | 1.0 | 0.00 | 0.00 | 0.00 | 76 | 1004.1 |
| 20260505063536 | 59 | 191 | 1.0 | 2.0 | 0.00 | 0.00 | 0.00 | 76 | 1003.9 |
| 20260505063031 | 59 | 178 | 1.0 | 1.0 | 0.00 | 0.00 | 0.00 | 76 | 1004.0 |
| 20260505062528 | 59 | 187 | 1.0 | 2.0 | 0.00 | 0.00 | 0.00 | 77 | 1003.9 |
| 20260505062026 | 59 | 184 | 1.0 | 2.0 | 0.00 | 0.00 | 0.00 | 78 | 1003.8 |
| 20260505061523 | 59 | 214 | 4.0 | 5.0 | 0.00 | 0.00 | 0.00 | 77 | 1004.0 |
| 20260505061021 | 60 | 192 | 6.0 | 7.0 | 0.00 | 0.00 | 0.00 | 75 | 1004.2 |
| 20260505060518 | 60 | 229 | 5.0 | 6.0 | 0.00 | 0.00 | 0.00 | 73 | 1004.4 |
| 20260505060015 | 61 | 183 | 4.0 | 6.0 | 0.00 | 0.00 | 0.00 | 69 | 1004.2 |
| 20260505055510 | 61 | 204 | 4.0 | 5.0 | 0.00 | 0.00 | 0.00 | 67 | 1004.2 |
| 20260505055007 | 62 | 217 | 4.0 | 6.0 | 0.00 | 0.00 | 0.00 | 65 | 1004.2 |
| 20260505054504 | 62 | 206 | 4.0 | 5.0 | 0.00 | 0.00 | 0.00 | 63 | 1004.0 |
| 20260505054002 | 62 | 207 | 3.0 | 3.0 | 0.00 | 0.00 | 0.00 | 62 | 1004.0 |
| 20260505053459 | 62 | 227 | 3.0 | 3.0 | 0.00 | 0.00 | 0.00 | 62 | 1004.0 |
| 20260505052955 | 62 | 191 | 3.0 | 3.0 | 0.00 | 0.00 | 0.00 | 61 | 1004.1 |
| 20260505052453 | 63 | 226 | 3.0 | 3.0 | 0.00 | 0.00 | 0.00 | 57 | 1004.4 |
| 20260505051950 | 63 | 209 | 4.0 | 5.0 | 0.00 | 0.00 | 0.00 | 55 | 1004.1 |
| 20260505051447 | 63 | 205 | 3.0 | 3.0 | 0.00 | 0.00 | 0.00 | 54 | 1004.3 |
| 20260505050945 | 63 | 194 | 3.0 | 3.0 | 0.00 | 0.00 | 0.00 | 54 | 1004.4 |
| 20260505050443 | 63 | 188 | 2.0 | 3.0 | 0.00 | 0.00 | 0.00 | 54 | 1004.4 |
| 20260505041411 | 61 | 201 | 1.0 | 2.0 | 0.00 | 0.00 | 0.00 | 54 | 1004.0 |
| 20260505040908 | 61 | 148 | 0.0 | 1.0 | 0.00 | 0.00 | 0.00 | 56 | 1004.0 |
| 20260505040405 | 62 | 180 | 1.0 | 1.0 | 0.00 | 0.00 | 0.00 | 53 | 1004.3 |
| 20260505035902 | 62 | 173 | 0.0 | 0.0 | 0.00 | 0.00 | 0.00 | 53 | 1003.9 |
| 20260505035357 | 62 | 190 | 1.0 | 1.0 | 0.00 | 0.00 | 0.00 | 53 | 1004.0 |
| 20260505034855 | 62 | 170 | 1.0 | 1.0 | 0.00 | 0.00 | 0.00 | 53 | 1004.1 |
| 20260505034351 | 62 | 177 | 1.0 | 1.0 | 0.00 | 0.00 | 0.00 | 52 | 1004.0 |
| 20260505033849 | 62 | 166 | 0.0 | 1.0 | 0.00 | 0.00 | 0.00 | 53 | 1003.9 |
| 20260505033345 | 62 | 174 | 0.0 | 0.0 | 0.00 | 0.00 | 0.00 | 51 | 1004.0 |
| 20260505032844 | 63 | 172 | 1.0 | 1.0 | 0.00 | 0.00 | 0.00 | 50 | 1004.1 |
| 20260505032340 | 63 | 182 | 0.0 | 0.0 | 0.00 | 0.00 | 0.00 | 50 | 1004.1 |
| 20260505031837 | 63 | 193 | 1.0 | 2.0 | 0.00 | 0.00 | 0.00 | 49 | 1004.1 |
| 20260505031333 | 63 | 196 | 2.0 | 2.0 | 0.00 | 0.00 | 0.00 | 49 | 1004.1 |
| 20260505030831 | 62 | 187 | 1.0 | 1.0 | 0.00 | 0.00 | 0.00 | 50 | 1004.1 |
| 20260505030327 | 62 | 183 | 1.0 | 2.0 | 0.00 | 0.00 | 0.00 | 51 | 1004.2 |
| 20260505025822 | 61 | 172 | 1.0 | 1.0 | 0.00 | 0.00 | 0.00 | 52 | 1004.2 |
| 20260505025320 | 60 | 171 | 1.0 | 1.0 | 0.00 | 0.00 | 0.00 | 54 | 1004.1 |
| 20260505024818 | 60 | 173 | 1.0 | 1.0 | 0.00 | 0.00 | 0.00 | 53 | 1004.1 |
| 20260505024316 | 60 | 147 | 0.0 | 0.0 | 0.00 | 0.00 | 0.00 | 55 | 1004.2 |
| 20260505023813 | 60 | 152 | 0.0 | 0.0 | 0.00 | 0.00 | 0.00 | 53 | 1004.1 |
| 20260505023309 | 60 | 180 | 1.0 | 1.0 | 0.00 | 0.00 | 0.00 | 53 | 1004.3 |
| 20260505022807 | 60 | 160 | 0.0 | 0.0 | 0.00 | 0.00 | 0.00 | 53 | 1004.2 |
| 20260505022304 | 60 | 152 | 0.0 | 0.0 | 0.00 | 0.00 | 0.00 | 53 | 1004.3 |
| 20260505021801 | 60 | 158 | 0.0 | 0.0 | 0.00 | 0.00 | 0.00 | 53 | 1004.5 |
| 20260505021257 | 60 | 149 | 0.0 | 0.0 | 0.00 | 0.00 | 0.00 | 53 | 1004.3 |
| 20260505020753 | 60 | 146 | 0.0 | 0.0 | 0.00 | 0.00 | 0.00 | 51 | 1004.2 |
| 20260505020248 | 60 | 153 | 0.0 | 0.0 | 0.00 | 0.00 | 0.00 | 51 | 1004.1 |
| 20260505015746 | 60 | 142 | 0.0 | 0.0 | 0.00 | 0.00 | 0.00 | 51 | 1004.1 |
| 20260505015243 | 61 | 142 | 0.0 | 0.0 | 0.00 | 0.00 | 0.00 | 51 | 1004.3 |
| 20260505014740 | 61 | 142 | 0.0 | 0.0 | 0.00 | 0.00 | 0.00 | 50 | 1004.1 |
| 20260505014237 | 61 | 142 | 0.0 | 0.0 | 0.00 | 0.00 | 0.00 | 50 | 1004.1 |
| 20260505013734 | 61 | 140 | 0.0 | 1.0 | 0.00 | 0.00 | 0.00 | 50 | 1004.2 |
| 20260505013231 | 61 | 142 | 0.0 | 0.0 | 0.00 | 0.00 | 0.00 | 51 | 1004.1 |
| 20260505012729 | 61 | 141 | 0.0 | 0.0 | 0.00 | 0.00 | 0.00 | 50 | 1004.2 |
| 20260505012226 | 61 | 143 | 0.0 | 0.0 | 0.00 | 0.00 | 0.00 | 50 | 1004.3 |
| 20260505011722 | 62 | 144 | 0.0 | 0.0 | 0.00 | 0.00 | 0.00 | 51 | 1004.0 |
| 20260505011219 | 62 | 145 | 0.0 | 0.0 | 0.00 | 0.00 | 0.00 | 47 | 1004.2 |
| 20260505010714 | 62 | 152 | 0.0 | 0.0 | 0.00 | 0.00 | 0.00 | 46 | 1004.2 |
| 20260505010212 | 63 | 153 | 0.0 | 0.0 | 0.00 | 0.00 | 0.00 | 46 | 1004.0 |
| 20260505005708 | 63 | 152 | 0.0 | 0.0 | 0.00 | 0.00 | 0.00 | 45 | 1004.1 |
| 20260505005205 | 63 | 152 | 0.0 | 0.0 | 0.00 | 0.00 | 0.00 | 45 | 1003.9 |
| 20260505004702 | 64 | 153 | 0.0 | 0.0 | 0.00 | 0.00 | 0.00 | 44 | 1004.0 |
| 20260505004159 | 64 | 153 | 0.0 | 0.0 | 0.00 | 0.00 | 0.00 | 44 | 1004.0 |
| 20260505003656 | 64 | 153 | 0.0 | 0.0 | 0.00 | 0.00 | 0.00 | 44 | 1004.0 |
| 20260505003153 | 64 | 153 | 0.0 | 0.0 | 0.00 | 0.00 | 0.00 | 44 | 1003.9 |
| 20260505002649 | 64 | 153 | 0.0 | 0.0 | 0.00 | 0.00 | 0.00 | 44 | 1004.1 |
| 20260505002148 | 64 | 153 | 0.0 | 0.0 | 0.00 | 0.00 | 0.00 | 43 | 1003.8 |
| 20260505001644 | 65 | 153 | 0.0 | 0.0 | 0.00 | 0.00 | 0.00 | 43 | 1003.9 |
| 20260505001142 | 65 | 153 | 0.0 | 0.0 | 0.00 | 0.00 | 0.00 | 44 | 1003.9 |
| 20260505000638 | 65 | 153 | 0.0 | 0.0 | 0.00 | 0.00 | 0.00 | 43 | 1004.1 |
| 20260505000137 | 66 | 154 | 0.0 | 0.0 | 0.00 | 0.00 | 0.00 | 42 | 1003.9 |
| 20260504235632 | 66 | 154 | 0.0 | 0.0 | 0.00 | 0.00 | 0.00 | 41 | 1004.0 |
| 20260504235129 | 66 | 154 | 0.0 | 0.0 | 0.00 | 0.00 | 0.00 | 41 | 1004.0 |
| 20260504234626 | 67 | 154 | 0.0 | 0.0 | 0.00 | 0.00 | 0.00 | 41 | 1003.8 |
| 20260504234124 | 67 | 154 | 0.0 | 0.0 | 0.00 | 0.00 | 0.00 | 40 | 1004.0 |
| 20260504233619 | 68 | 154 | 0.0 | 0.0 | 0.00 | 0.00 | 0.00 | 40 | 1003.8 |
| 20260504233115 | 69 | 168 | 0.0 | 0.0 | 0.00 | 0.00 | 0.00 | 40 | 1003.8 |
| 20260504232613 | 69 | 175 | 0.0 | 1.0 | 0.00 | 0.00 | 0.00 | 38 | 1004.0 |
| 20260504232110 | 70 | 158 | 0.0 | 0.0 | 0.00 | 0.00 | 0.00 | 39 | 1004.0 |
| 20260504231607 | 70 | 175 | 1.0 | 1.0 | 0.00 | 0.00 | 0.00 | 36 | 1003.8 |
| 20260504231103 | 70 | 175 | 0.0 | 1.0 | 0.00 | 0.00 | 0.00 | 39 | 1003.5 |
| 20260504230559 | 71 | 162 | 0.0 | 0.0 | 0.00 | 0.00 | 0.00 | 39 | 1003.8 |
| 20260504230058 | 71 | 176 | 0.0 | 1.0 | 0.00 | 0.00 | 0.00 | 36 | 1003.6 |
| 20260504225555 | 71 | 175 | 0.0 | 0.0 | 0.00 | 0.00 | 0.00 | 36 | 1003.8 |
| 20260504225052 | 71 | 176 | 1.0 | 1.0 | 0.00 | 0.00 | 0.00 | 36 | 1003.6 |
| 20260504224549 | 71 | 175 | 1.0 | 2.0 | 0.00 | 0.00 | 0.00 | 36 | 1003.8 |
| 20260504224046 | 71 | 210 | 2.0 | 2.0 | 0.00 | 0.00 | 0.00 | 35 | 1003.8 |
| 20260504223543 | 71 | 187 | 2.0 | 2.0 | 0.00 | 0.00 | 0.00 | 35 | 1003.9 |
| 20260504223038 | 72 | 186 | 1.0 | 1.0 | 0.00 | 0.00 | 0.00 | 37 | 1004.1 |
| 20260504222536 | 71 | 189 | 2.0 | 2.0 | 0.00 | 0.00 | 0.00 | 35 | 1004.5 |
| 20260504222033 | 71 | 204 | 3.0 | 3.0 | 0.00 | 0.00 | 0.00 | 36 | 1004.1 |
| 20260504221530 | 71 | 196 | 2.0 | 2.0 | 0.00 | 0.00 | 0.00 | 35 | 1004.0 |
| 20260504221027 | 71 | 220 | 2.0 | 3.0 | 0.00 | 0.00 | 0.00 | 35 | 1004.0 |
| 20260504220523 | 72 | 199 | 3.0 | 3.0 | 0.00 | 0.00 | 0.00 | 34 | 1004.1 |
| 20260504220021 | 71 | 222 | 2.0 | 2.0 | 0.00 | 0.00 | 0.00 | 35 | 1004.3 |
| 20260504215517 | 72 | 199 | 2.0 | 2.0 | 0.00 | 0.00 | 0.00 | 37 | 1004.0 |
| 20260504215014 | 71 | 215 | 3.0 | 3.0 | 0.00 | 0.00 | 0.00 | 37 | 1004.0 |
| 20260504214510 | 71 | 198 | 2.0 | 2.0 | 0.00 | 0.00 | 0.00 | 35 | 1004.0 |
| 20260504214006 | 71 | 205 | 3.0 | 3.0 | 0.00 | 0.00 | 0.00 | 37 | 1004.2 |
| 20260504213503 | 71 | 190 | 3.0 | 3.0 | 0.00 | 0.00 | 0.00 | 37 | 1004.2 |
| 20260504213001 | 71 | 194 | 2.0 | 2.0 | 0.00 | 0.00 | 0.00 | 37 | 1004.4 |
| 20260504212456 | 71 | 223 | 3.0 | 3.0 | 0.00 | 0.00 | 0.00 | 36 | 1004.3 |
| 20260504211954 | 71 | 199 | 3.0 | 3.0 | 0.00 | 0.00 | 0.00 | 36 | 1004.2 |
| 20260504211450 | 71 | 224 | 3.0 | 3.0 | 0.00 | 0.00 | 0.00 | 36 | 1004.3 |
| 20260504210948 | 71 | 215 | 5.0 | 6.0 | 0.00 | 0.00 | 0.00 | 36 | 1004.2 |
| 20260504210444 | 71 | 191 | 2.0 | 2.0 | 0.00 | 0.00 | 0.00 | 39 | 1004.5 |
| 20260504205941 | 70 | 257 | 4.0 | 5.0 | 0.00 | 0.00 | 0.00 | 38 | 1004.4 |
| 20260504205439 | 71 | 208 | 5.0 | 5.0 | 0.00 | 0.00 | 0.00 | 40 | 1004.4 |
| 20260504204937 | 70 | 205 | 3.0 | 3.0 | 0.00 | 0.00 | 0.00 | 39 | 1004.5 |
| 20260504204435 | 70 | 236 | 4.0 | 5.0 | 0.00 | 0.00 | 0.00 | 40 | 1004.3 |
| 20260504203934 | 70 | 214 | 3.0 | 3.0 | 0.00 | 0.00 | 0.00 | 38 | 1004.4 |
| 20260504203431 | 70 | 197 | 3.0 | 3.0 | 0.00 | 0.00 | 0.00 | 40 | 1004.5 |
| 20260504202927 | 71 | 205 | 4.0 | 5.0 | 0.00 | 0.00 | 0.00 | 38 | 1004.7 |
| 20260504202424 | 71 | 202 | 4.0 | 5.0 | 0.00 | 0.00 | 0.00 | 42 | 1004.4 |
| 20260504201920 | 71 | 214 | 5.0 | 6.0 | 0.00 | 0.00 | 0.00 | 40 | 1004.8 |
| 20260504201418 | 69 | 230 | 3.0 | 3.0 | 0.00 | 0.00 | 0.00 | 43 | 1004.6 |
| 20260504200915 | 70 | 235 | 4.0 | 5.0 | 0.00 | 0.00 | 0.00 | 42 | 1004.8 |
| 20260504200412 | 70 | 230 | 2.0 | 2.0 | 0.00 | 0.00 | 0.00 | 42 | 1004.9 |
| 20260504195909 | 70 | 243 | 3.0 | 5.0 | 0.00 | 0.00 | 0.00 | 43 | 1004.9 |
| 20260504195404 | 71 | 212 | 3.0 | 5.0 | 0.00 | 0.00 | 0.00 | 43 | 1004.9 |
| 20260504194901 | 70 | 201 | 2.0 | 2.0 | 0.00 | 0.00 | 0.00 | 43 | 1005.0 |
| 20260504194357 | 70 | 247 | 4.0 | 5.0 | 0.00 | 0.00 | 0.00 | 43 | 1005.1 |
| 20260504193853 | 70 | 237 | 4.0 | 5.0 | 0.00 | 0.00 | 0.00 | 44 | 1005.3 |
| 20260504193350 | 69 | 198 | 5.0 | 6.0 | 0.00 | 0.00 | 0.00 | 43 | 1005.2 |
| 20260504192849 | 70 | 260 | 6.0 | 7.0 | 0.00 | 0.00 | 0.00 | 43 | 1005.1 |
| 20260504192346 | 69 | 199 | 3.0 | 3.0 | 0.00 | 0.00 | 0.00 | 43 | 1005.4 |
| 20260504191845 | 69 | 223 | 3.0 | 3.0 | 0.00 | 0.00 | 0.00 | 43 | 1005.4 |
| 20260504191343 | 69 | 218 | 6.0 | 7.0 | 0.00 | 0.00 | 0.00 | 44 | 1005.6 |
| 20260504190838 | 69 | 247 | 7.0 | 8.0 | 0.00 | 0.00 | 0.00 | 43 | 1005.5 |
| 20260504190334 | 68 | 221 | 6.0 | 7.0 | 0.00 | 0.00 | 0.00 | 44 | 1005.7 |
| 20260504185830 | 68 | 206 | 5.0 | 6.0 | 0.00 | 0.00 | 0.00 | 45 | 1005.6 |
| 20260504185327 | 68 | 246 | 4.0 | 5.0 | 0.00 | 0.00 | 0.00 | 45 | 1005.4 |
| 20260504184823 | 68 | 243 | 4.0 | 5.0 | 0.00 | 0.00 | 0.00 | 45 | 1005.5 |
| 20260504184320 | 69 | 262 | 6.0 | 7.0 | 0.00 | 0.00 | 0.00 | 45 | 1005.6 |
| 20260504183815 | 68 | 214 | 4.0 | 5.0 | 0.00 | 0.00 | 0.00 | 48 | 1005.7 |
| 20260504183313 | 68 | 246 | 7.0 | 8.0 | 0.00 | 0.00 | 0.00 | 44 | 1005.8 |
| 20260504182811 | 68 | 247 | 6.0 | 7.0 | 0.00 | 0.00 | 0.00 | 46 | 1005.9 |
| 20260504182308 | 67 | 236 | 5.0 | 6.0 | 0.00 | 0.00 | 0.00 | 47 | 1005.8 |
| 20260504181805 | 68 | 202 | 1.0 | 2.0 | 0.00 | 0.00 | 0.00 | 47 | 1005.8 |
| 20260504181302 | 67 | 238 | 4.0 | 5.0 | 0.00 | 0.00 | 0.00 | 50 | 1005.9 |
| 20260504180801 | 68 | 245 | 6.0 | 9.0 | 0.00 | 0.00 | 0.00 | 46 | 1005.9 |
| 20260504180259 | 67 | 255 | 5.0 | 6.0 | 0.00 | 0.00 | 0.00 | 52 | 1005.9 |
| 20260504175757 | 67 | 254 | 5.0 | 6.0 | 0.00 | 0.00 | 0.00 | 51 | 1005.8 |
| 20260504175253 | 67 | 205 | 3.0 | 5.0 | 0.00 | 0.00 | 0.00 | 48 | 1005.9 |
| 20260504174751 | 66 | 206 | 4.0 | 5.0 | 0.00 | 0.00 | 0.00 | 49 | 1006.0 |
| 20260504174249 | 66 | 203 | 3.0 | 3.0 | 0.00 | 0.00 | 0.00 | 50 | 1006.0 |
| 20260504173745 | 66 | 267 | 4.0 | 5.0 | 0.00 | 0.00 | 0.00 | 48 | 1006.0 |
| 20260504173242 | 66 | 165 | 3.0 | 5.0 | 0.00 | 0.00 | 0.00 | 52 | 1005.9 |
| 20260504172739 | 65 | 205 | 3.0 | 5.0 | 0.00 | 0.00 | 0.00 | 49 | 1006.1 |
| 20260504172236 | 65 | 219 | 4.0 | 5.0 | 0.00 | 0.00 | 0.00 | 49 | 1006.0 |
| 20260504171732 | 65 | 214 | 6.0 | 7.0 | 0.00 | 0.00 | 0.00 | 50 | 1006.2 |
| 20260504171229 | 66 | 211 | 4.0 | 7.0 | 0.00 | 0.00 | 0.00 | 49 | 1006.3 |
| 20260504170726 | 65 | 238 | 6.0 | 7.0 | 0.00 | 0.00 | 0.00 | 50 | 1006.2 |
| 20260504170223 | 64 | 211 | 4.0 | 5.0 | 0.00 | 0.00 | 0.00 | 51 | 1006.1 |
| 20260504160142 | 61 | 215 | 4.0 | 5.0 | 0.00 | 0.00 | 0.00 | 52 | 1006.5 |
| 20260504151109 | 60 | 228 | 5.0 | 7.0 | 0.00 | 0.00 | 0.00 | 52 | 1007.1 |
| 20260504150607 | 59 | 221 | 3.0 | 3.0 | 0.00 | 0.00 | 0.00 | 52 | 1007.0 |
| 20260504150104 | 60 | 206 | 4.0 | 5.0 | 0.00 | 0.00 | 0.00 | 51 | 1007.1 |
| 20260504141032 | 57 | 246 | 3.0 | 3.0 | 0.00 | 0.00 | 0.00 | 55 | 1007.5 |
| 20260504140529 | 57 | 211 | 5.0 | 6.0 | 0.00 | 0.00 | 0.00 | 53 | 1007.4 |
| 20260504130453 | 53 | 208 | 3.0 | 3.0 | 0.00 | 0.00 | 0.00 | 56 | 1007.7 |
| 20260504110340 | 50 | 198 | 2.0 | 2.0 | 0.00 | 0.00 | 0.00 | 58 | 1007.8 |
| 20260504100257 | 50 | 228 | 2.0 | 2.0 | 0.00 | 0.00 | 0.00 | 57 | 1007.8 |